Time,TemperatureF,DewpointF,PressureIn,WindDirection,WindDirectionDegrees,WindSpeedMPH,WindSpeedGustMPH,Humidity,HourlyPrecipIn,Conditions,Clouds,dailyrainin,SoftwareType,DateUTC
2013-07-04 00:01:00,71.4,69.9,30.19,SW,235,0.0,0.0,95,0.01,RA,,0.01,WeatherDisplay:10.37,2013-07-04 04:01:00,
2013-07-04 00:02:00,71.4,69.9,30.19,SW,234,0.0,0.0,95,0.02,RA,,0.01,WeatherDisplay:10.37,2013-07-04 04:02:00,
2013-07-04 00:07:00,71.4,69.9,30.19,SW,235,0.0,0.0,95,0.02,RA,,0.01,WeatherDisplay:10.37,2013-07-04 04:07:00,
2013-07-04 00:12:00,71.5,70.0,30.19,SW,235,0.0,0.0,95,0.02,,,0.01,WeatherDisplay:10.37,2013-07-04 04:12:00,
2013-07-04 00:17:00,71.7,70.5,30.19,East,101,0.0,0.0,96,0.02,CLR,,0.01,WeatherDisplay:10.37,2013-07-04 04:17:00,
2013-07-04 00:22:00,71.9,70.7,30.19,South,188,1.2,0.0,96,0.02,CLR,,0.01,WeatherDisplay:10.37,2013-07-04 04:22:00,
2013-07-04 00:27:00,72.1,70.9,30.19,SSE,155,3.5,3.5,96,0.02,CLR,,0.01,WeatherDisplay:10.37,2013-07-04 04:27:00,
2013-07-04 00:32:00,72.1,70.9,30.21,West,259,12.0,12.9,96,0.02,CLR,,0.07,WeatherDisplay:10.37,2013-07-04 04:32:00,
2013-07-04 00:37:00,71.1,69.6,30.21,West,277,8.1,8.1,95,0.25,RA,,0.24,WeatherDisplay:10.37,2013-07-04 04:37:00,
2013-07-04 00:42:00,70.4,68.6,30.21,WSW,252,5.8,5.8,94,0.30,RA,,0.30,WeatherDisplay:10.37,2013-07-04 04:42:00,
2013-07-04 00:47:00,70.0,68.2,30.21,WSW,246,3.5,0.0,94,0.36,RA,,0.36,WeatherDisplay:10.37,2013-07-04 04:47:00,
2013-07-04 00:52:00,69.7,67.9,30.21,South,181,3.5,3.5,94,0.42,RA,,0.42,WeatherDisplay:10.37,2013-07-04 04:52:00,
2013-07-04 00:57:00,69.5,67.7,30.20,SSW,202,2.3,2.3,94,0.44,RA,,0.44,WeatherDisplay:10.37,2013-07-04 04:57:00,
2013-07-04 01:02:00,69.3,67.5,30.20,SSW,202,3.5,3.5,94,0.46,RA,,0.47,WeatherDisplay:10.37,2013-07-04 05:02:00,
2013-07-04 01:07:00,69.1,67.3,30.20,SSW,202,2.3,2.3,94,0.47,RA,,0.48,WeatherDisplay:10.37,2013-07-04 05:07:00,
2013-07-04 01:12:00,69.0,67.2,30.20,SSW,202,0.0,0.0,94,0.47,RA,,0.48,WeatherDisplay:10.37,2013-07-04 05:12:00,
2013-07-04 01:17:00,68.9,67.1,30.20,WSW,241,4.6,4.6,94,0.48,RA,,0.49,WeatherDisplay:10.37,2013-07-04 05:17:00,
2013-07-04 01:22:00,68.9,67.4,30.20,WSW,241,3.5,3.5,95,0.50,RA,,0.51,WeatherDisplay:10.37,2013-07-04 05:22:00,
2013-07-04 01:27:00,68.8,67.3,30.21,WSW,256,5.0,5.0,95,0.51,RA,,0.52,WeatherDisplay:10.37,2013-07-04 05:27:00,
2013-07-04 01:32:00,68.8,67.3,30.20,WSW,254,5.8,5.8,95,0.57,RA,,0.59,WeatherDisplay:10.37,2013-07-04 05:32:00,
2013-07-04 01:37:00,68.8,67.3,30.21,SW,235,1.2,1.2,95,0.41,RA,,0.65,WeatherDisplay:10.37,2013-07-04 05:37:00,
2013-07-04 01:42:00,68.8,67.3,30.20,SW,234,3.5,3.5,95,0.37,RA,,0.66,WeatherDisplay:10.37,2013-07-04 05:42:00,
2013-07-04 01:47:00,68.7,67.2,30.19,SW,235,0.0,0.0,95,0.32,RA,,0.67,WeatherDisplay:10.37,2013-07-04 05:47:00,
2013-07-04 01:52:00,68.7,67.2,30.20,SW,235,0.0,0.0,95,0.26,RA,,0.67,WeatherDisplay:10.37,2013-07-04 05:52:00,
2013-07-04 01:57:00,68.7,67.2,30.19,SW,235,4.0,4.0,95,0.24,,,0.67,WeatherDisplay:10.37,2013-07-04 05:57:00,
2013-07-04 02:02:00,68.7,67.2,30.19,SW,234,0.0,0.0,95,0.20,CLR,,0.67,WeatherDisplay:10.37,2013-07-04 06:02:00,
2013-07-04 02:07:00,68.8,67.3,30.19,SW,235,0.0,0.0,95,0.19,CLR,,0.67,WeatherDisplay:10.37,2013-07-04 06:07:00,
2013-07-04 02:12:00,68.8,67.3,30.19,SW,234,0.0,0.0,95,0.21,RA,,0.69,WeatherDisplay:10.37,2013-07-04 06:12:00,
2013-07-04 02:17:00,68.8,67.3,30.19,SW,234,0.0,0.0,95,0.21,RA,,0.71,WeatherDisplay:10.37,2013-07-04 06:17:00,
2013-07-04 02:22:00,68.8,67.3,30.19,SW,234,0.0,0.0,95,0.20,RA,,0.71,WeatherDisplay:10.37,2013-07-04 06:22:00,
2013-07-04 02:27:00,68.8,67.3,30.19,SW,235,0.0,0.0,95,0.19,RA,,0.72,WeatherDisplay:10.37,2013-07-04 06:27:00,
2013-07-04 02:32:00,68.8,67.3,30.19,SW,235,0.0,0.0,95,0.14,RA,,0.72,WeatherDisplay:10.37,2013-07-04 06:32:00,
2013-07-04 02:37:00,68.8,67.3,30.19,SW,234,0.0,0.0,95,0.07,RA,,0.72,WeatherDisplay:10.37,2013-07-04 06:37:00,
2013-07-04 02:42:00,68.8,67.6,30.18,SW,235,0.0,0.0,96,0.06,CLR,,0.72,WeatherDisplay:10.37,2013-07-04 06:42:00,
2013-07-04 02:47:00,68.9,67.7,30.18,SW,235,0.0,0.0,96,0.05,CLR,,0.72,WeatherDisplay:10.37,2013-07-04 06:47:00,
2013-07-04 02:52:00,68.9,67.7,30.18,SW,234,0.0,0.0,96,0.05,CLR,,0.72,WeatherDisplay:10.37,2013-07-04 06:52:00,
2013-07-04 02:57:00,68.9,67.7,30.18,SW,234,0.0,0.0,96,0.05,CLR,,0.72,WeatherDisplay:10.37,2013-07-04 06:57:00,
2013-07-04 03:02:00,68.9,67.7,30.18,SW,235,0.0,0.0,96,0.05,CLR,,0.72,WeatherDisplay:10.37,2013-07-04 07:02:00,
2013-07-04 03:07:00,69.0,67.8,30.18,SW,235,0.0,0.0,96,0.05,CLR,,0.72,WeatherDisplay:10.37,2013-07-04 07:07:00,
2013-07-04 03:12:00,69.0,67.8,30.18,SW,234,0.0,0.0,96,0.03,CLR,,0.72,WeatherDisplay:10.37,2013-07-04 07:12:00,
2013-07-04 03:17:00,69.0,67.8,30.18,SW,235,0.0,0.0,96,0.02,CLR,,0.72,WeatherDisplay:10.37,2013-07-04 07:17:00,
2013-07-04 03:22:00,69.0,67.8,30.18,SW,235,0.0,0.0,96,0.01,CLR,,0.72,WeatherDisplay:10.37,2013-07-04 07:22:00,
2013-07-04 03:27:00,68.9,67.7,30.18,SW,235,0.0,0.0,96,0.01,CLR,,0.73,WeatherDisplay:10.37,2013-07-04 07:27:00,
2013-07-04 03:32:00,68.9,67.7,30.17,SW,234,0.0,0.0,96,0.05,RA,,0.79,WeatherDisplay:10.37,2013-07-04 07:32:00,
2013-07-04 03:37:00,68.9,67.7,30.17,SW,235,0.0,0.0,96,0.07,RA,,0.79,WeatherDisplay:10.37,2013-07-04 07:37:00,
2013-07-04 03:42:00,68.9,67.7,30.18,SW,235,0.0,0.0,96,0.08,RA,,0.80,WeatherDisplay:10.37,2013-07-04 07:42:00,
2013-07-04 03:47:00,68.9,67.7,30.18,SW,235,0.0,0.0,96,0.08,RA,,0.80,WeatherDisplay:10.37,2013-07-04 07:47:00,
2013-07-04 03:52:00,68.9,67.7,30.17,SW,234,0.0,0.0,96,0.08,,,0.80,WeatherDisplay:10.37,2013-07-04 07:52:00,
2013-07-04 03:57:00,68.9,67.7,30.17,SW,235,0.0,0.0,96,0.08,CLR,,0.80,WeatherDisplay:10.37,2013-07-04 07:57:00,
2013-07-04 04:02:00,68.9,67.7,30.17,SW,235,0.0,0.0,96,0.08,CLR,,0.80,WeatherDisplay:10.37,2013-07-04 08:02:00,
2013-07-04 04:07:00,68.9,67.7,30.17,SW,235,0.0,0.0,96,0.08,CLR,,0.80,WeatherDisplay:10.37,2013-07-04 08:07:00,
2013-07-04 04:12:00,69.0,67.8,30.17,SW,235,0.0,0.0,96,0.08,CLR,,0.80,WeatherDisplay:10.37,2013-07-04 08:12:00,
2013-07-04 04:17:00,69.0,67.8,30.17,SW,235,0.0,0.0,96,0.08,CLR,,0.80,WeatherDisplay:10.37,2013-07-04 08:17:00,
2013-07-04 04:22:00,69.0,67.8,30.17,SW,235,0.0,0.1,96,0.08,CLR,,0.80,WeatherDisplay:10.37,2013-07-04 08:22:00,
2013-07-04 04:27:00,69.1,67.9,30.17,SW,235,1.2,1.2,96,0.09,RA,,0.81,WeatherDisplay:10.37,2013-07-04 08:27:00,
2013-07-04 04:32:00,69.3,68.1,30.17,SW,235,0.0,0.0,96,0.04,RA,,0.81,WeatherDisplay:10.37,2013-07-04 08:32:00,
2013-07-04 04:37:00,69.5,68.3,30.17,ESE,120,0.0,0.0,96,0.02,CLR,,0.81,WeatherDisplay:10.37,2013-07-04 08:37:00,
2013-07-04 04:42:00,69.7,68.5,30.17,SE,130,0.0,0.0,96,0.01,CLR,,0.81,WeatherDisplay:10.37,2013-07-04 08:42:00,
2013-07-04 04:47:00,70.0,68.8,30.17,SE,130,0.0,0.0,96,0.01,CLR,,0.81,WeatherDisplay:10.37,2013-07-04 08:47:00,
2013-07-04 04:52:00,70.4,69.5,30.18,SW,218,0.0,0.0,97,0.01,CLR,,0.81,WeatherDisplay:10.37,2013-07-04 08:52:00,
2013-07-04 04:57:00,70.8,69.6,30.18,SW,221,0.0,0.0,96,0.01,CLR,,0.81,WeatherDisplay:10.37,2013-07-04 08:57:00,
2013-07-04 05:02:00,71.1,70.2,30.18,SW,221,0.0,0.0,97,0.01,CLR,,0.81,WeatherDisplay:10.37,2013-07-04 09:02:00,
2013-07-04 05:07:00,71.3,70.4,30.18,SW,221,0.0,0.0,97,0.01,CLR,,0.81,WeatherDisplay:10.37,2013-07-04 09:07:00,
2013-07-04 05:12:00,71.3,70.4,30.18,SW,221,0.0,0.0,97,0.01,CLR,,0.81,WeatherDisplay:10.37,2013-07-04 09:12:00,
2013-07-04 05:17:00,71.4,70.5,30.18,SW,221,0.0,0.0,97,0.01,CLR,,0.81,WeatherDisplay:10.37,2013-07-04 09:17:00,
2013-07-04 05:22:00,71.5,70.6,30.18,SW,221,0.0,0.0,97,0.01,CLR,,0.81,WeatherDisplay:10.37,2013-07-04 09:22:00,
2013-07-04 05:27:00,71.6,70.7,30.18,SW,221,0.0,0.0,97,0.00,CLR,,0.82,WeatherDisplay:10.37,2013-07-04 09:27:00,
2013-07-04 05:32:00,71.7,70.8,30.18,SW,221,0.0,0.0,97,0.01,RA,,0.82,WeatherDisplay:10.37,2013-07-04 09:32:00,
2013-07-04 05:37:00,71.7,70.8,30.18,South,190,0.0,0.0,97,0.02,RA,,0.83,WeatherDisplay:10.37,2013-07-04 09:37:00,
2013-07-04 05:42:00,71.8,70.9,30.18,South,184,0.0,0.0,97,0.02,RA,,0.83,WeatherDisplay:10.37,2013-07-04 09:42:00,
2013-07-04 05:47:00,71.8,70.9,30.18,SSW,209,0.0,0.0,97,0.04,RA,,0.85,WeatherDisplay:10.37,2013-07-04 09:47:00,
2013-07-04 05:52:00,71.9,71.0,30.18,SSW,209,0.0,0.0,97,0.04,RA,,0.85,WeatherDisplay:10.37,2013-07-04 09:52:00,
2013-07-04 05:57:00,71.9,71.0,30.19,SSW,209,0.0,0.0,97,0.04,,,0.85,WeatherDisplay:10.37,2013-07-04 09:57:00,
2013-07-04 06:02:00,71.9,71.0,30.19,SSW,209,0.0,0.0,97,0.05,RA,,0.86,WeatherDisplay:10.37,2013-07-04 10:02:00,
2013-07-04 06:07:00,71.9,71.0,30.19,South,179,2.3,2.3,97,0.05,RA,,0.86,WeatherDisplay:10.37,2013-07-04 10:07:00,
2013-07-04 06:12:00,71.3,70.1,30.20,West,263,11.5,11.5,96,0.24,RA,,1.05,WeatherDisplay:10.37,2013-07-04 10:12:00,
2013-07-04 06:17:00,69.8,68.6,30.20,West,273,10.4,10.4,96,0.40,RA,,1.21,WeatherDisplay:10.37,2013-07-04 10:17:00,
2013-07-04 06:22:00,69.2,68.0,30.20,West,268,2.3,2.3,96,0.45,RA,,1.26,WeatherDisplay:10.37,2013-07-04 10:22:00,
2013-07-04 06:27:00,68.9,67.7,30.20,West,268,0.0,0.0,96,0.51,RA,,1.33,WeatherDisplay:10.37,2013-07-04 10:27:00,
2013-07-04 06:32:00,68.8,67.6,30.20,West,268,0.0,0.0,96,0.54,RA,,1.36,WeatherDisplay:10.37,2013-07-04 10:32:00,
2013-07-04 06:37:00,68.8,67.6,30.20,West,268,0.0,0.0,96,0.53,RA,,1.36,WeatherDisplay:10.37,2013-07-04 10:37:00,
2013-07-04 06:42:00,68.8,67.6,30.21,West,268,0.0,0.0,96,0.54,RA,,1.37,WeatherDisplay:10.37,2013-07-04 10:42:00,
2013-07-04 06:47:00,68.8,67.6,30.21,West,268,0.0,0.0,96,0.52,RA,,1.37,WeatherDisplay:10.37,2013-07-04 10:47:00,
2013-07-04 06:52:00,68.8,67.6,30.20,West,268,0.0,0.0,96,0.56,RA,,1.41,WeatherDisplay:10.37,2013-07-04 10:52:00,
2013-07-04 06:57:00,68.9,67.7,30.21,South,178,0.0,0.0,96,0.57,RA,,1.43,WeatherDisplay:10.37,2013-07-04 10:57:00,
2013-07-04 07:02:00,68.8,67.6,30.20,SE,126,0.0,0.0,96,0.59,RA,,1.45,WeatherDisplay:10.37,2013-07-04 11:02:00,
2013-07-04 07:07:00,68.8,67.6,30.20,SE,146,1.0,0.0,96,0.64,RA,,1.50,WeatherDisplay:10.37,2013-07-04 11:07:00,
2013-07-04 07:12:00,68.7,67.5,30.20,SE,131,1.0,0.0,96,0.46,RA,,1.51,WeatherDisplay:10.37,2013-07-04 11:12:00,
2013-07-04 07:17:00,68.7,67.5,30.20,SE,130,0.0,0.0,96,0.31,RA,,1.52,WeatherDisplay:10.37,2013-07-04 11:17:00,
2013-07-04 07:22:00,68.7,67.5,30.20,SE,130,0.0,0.0,96,0.27,RA,,1.52,WeatherDisplay:10.37,2013-07-04 11:22:00,
2013-07-04 07:27:00,68.8,67.6,30.20,WNW,284,2.3,2.3,96,0.19,CLR,,1.52,WeatherDisplay:10.37,2013-07-04 11:27:00,
2013-07-04 07:32:00,68.9,67.7,30.20,West,273,0.0,0.0,96,0.16,CLR,,1.52,WeatherDisplay:10.37,2013-07-04 11:32:00,
2013-07-04 07:37:00,68.9,67.7,30.21,West,273,0.0,0.0,96,0.16,CLR,,1.52,WeatherDisplay:10.37,2013-07-04 11:37:00,
2013-07-04 07:42:00,69.0,67.8,30.21,West,273,0.0,0.0,96,0.15,CLR,,1.52,WeatherDisplay:10.37,2013-07-04 11:42:00,
2013-07-04 07:47:00,69.1,67.9,30.21,West,273,0.0,0.0,96,0.15,CLR,,1.52,WeatherDisplay:10.37,2013-07-04 11:47:00,
2013-07-04 07:52:00,69.2,68.0,30.22,West,273,0.0,0.0,96,0.11,CLR,,1.52,WeatherDisplay:10.37,2013-07-04 11:52:00,
2013-07-04 07:57:00,69.3,68.1,30.22,West,273,0.0,0.0,96,0.10,RA,,1.53,WeatherDisplay:10.37,2013-07-04 11:57:00,
2013-07-04 08:02:00,69.4,68.2,30.22,West,273,0.0,0.0,96,0.09,RA,,1.54,WeatherDisplay:10.37,2013-07-04 12:02:00,
2013-07-04 08:07:00,69.5,68.3,30.22,West,273,0.0,0.0,96,0.05,RA,,1.55,WeatherDisplay:10.37,2013-07-04 12:07:00,
2013-07-04 08:12:00,69.5,68.3,30.22,West,266,0.0,0.0,96,0.05,RA,,1.56,WeatherDisplay:10.37,2013-07-04 12:12:00,
2013-07-04 08:17:00,69.5,68.3,30.22,ESE,103,0.0,0.0,96,0.04,RA,,1.56,WeatherDisplay:10.37,2013-07-04 12:17:00,
2013-07-04 08:22:00,69.5,68.3,30.22,ESE,103,0.0,0.0,96,0.04,,,1.56,WeatherDisplay:10.37,2013-07-04 12:22:00,
2013-07-04 08:27:00,69.6,68.4,30.22,ESE,103,0.0,0.0,96,0.04,CLR,,1.56,WeatherDisplay:10.37,2013-07-04 12:27:00,
2013-07-04 08:32:00,69.8,68.6,30.22,ESE,103,0.0,0.0,96,0.04,CLR,,1.56,WeatherDisplay:10.37,2013-07-04 12:32:00,
2013-07-04 08:37:00,69.9,68.7,30.23,ESE,103,0.0,0.0,96,0.04,CLR,,1.56,WeatherDisplay:10.37,2013-07-04 12:37:00,
2013-07-04 08:42:00,70.1,68.9,30.23,ESE,103,0.0,0.0,96,0.04,CLR,,1.56,WeatherDisplay:10.37,2013-07-04 12:42:00,
2013-07-04 08:47:00,70.6,69.7,30.22,ESE,103,0.0,0.0,97,0.04,CLR,,1.56,WeatherDisplay:10.37,2013-07-04 12:47:00,
2013-07-04 08:52:00,71.6,70.7,30.22,ESE,103,0.0,0.0,97,0.04,CLR,,1.56,WeatherDisplay:10.37,2013-07-04 12:52:00,
2013-07-04 08:57:00,72.2,71.3,30.23,SW,221,3.5,3.5,97,0.03,CLR,,1.56,WeatherDisplay:10.37,2013-07-04 12:57:00,
2013-07-04 09:02:00,72.2,71.3,30.23,SW,236,4.6,4.6,97,0.02,CLR,,1.56,WeatherDisplay:10.37,2013-07-04 13:02:00,
2013-07-04 09:07:00,72.0,71.1,30.23,WSW,242,3.5,3.5,97,0.01,CLR,,1.56,WeatherDisplay:10.37,2013-07-04 13:07:00,
2013-07-04 09:12:00,72.3,71.1,30.23,WSW,239,0.0,0.0,96,0.00,CLR,,1.56,WeatherDisplay:10.37,2013-07-04 13:12:00,
2013-07-04 09:17:00,72.4,71.5,30.23,SW,230,4.6,4.6,97,0.00,CLR,,1.56,WeatherDisplay:10.37,2013-07-04 13:17:00,
2013-07-04 09:22:00,72.6,71.7,30.23,SE,143,0.0,0.0,97,0.00,CLR,,1.56,WeatherDisplay:10.37,2013-07-04 13:22:00,
2013-07-04 09:27:00,72.9,71.7,30.22,SSE,158,1.2,0.0,96,0.00,CLR,,1.56,WeatherDisplay:10.37,2013-07-04 13:27:00,
2013-07-04 09:32:00,73.5,72.3,30.22,South,169,1.2,0.0,96,0.00,CLR,,1.56,WeatherDisplay:10.37,2013-07-04 13:32:00,
2013-07-04 09:37:00,74.0,72.8,30.22,SE,125,0.0,0.0,96,0.00,CLR,,1.56,WeatherDisplay:10.37,2013-07-04 13:37:00,
2013-07-04 09:42:00,74.3,73.1,30.22,SSE,155,1.0,0.0,96,0.00,CLR,,1.56,WeatherDisplay:10.37,2013-07-04 13:42:00,
2013-07-04 09:47:00,74.7,73.2,30.22,ENE,58,3.5,3.5,95,0.00,CLR,,1.56,WeatherDisplay:10.37,2013-07-04 13:47:00,
2013-07-04 09:52:00,75.2,73.4,30.22,ESE,110,3.5,3.5,94,0.00,CLR,,1.56,WeatherDisplay:10.37,2013-07-04 13:52:00,
2013-07-04 09:57:00,75.6,73.1,30.22,SE,136,4.6,4.6,92,0.00,CLR,,1.56,WeatherDisplay:10.37,2013-07-04 13:57:00,
2013-07-04 10:02:00,75.8,73.3,30.22,East,88,3.5,3.5,92,0.00,CLR,,1.56,WeatherDisplay:10.37,2013-07-04 14:02:00,
2013-07-04 10:07:00,76.0,73.2,30.22,SSE,160,4.0,4.0,91,0.00,CLR,,1.56,WeatherDisplay:10.37,2013-07-04 14:07:00,
2013-07-04 10:12:00,76.2,73.1,30.22,SE,137,3.5,3.5,90,0.00,CLR,,1.56,WeatherDisplay:10.37,2013-07-04 14:12:00,
2013-07-04 10:17:00,76.1,73.0,30.22,SW,218,1.2,1.2,90,0.00,CLR,,1.56,WeatherDisplay:10.37,2013-07-04 14:17:00,
2013-07-04 10:22:00,76.0,72.5,30.22,South,174,3.5,3.5,89,0.00,CLR,,1.56,WeatherDisplay:10.37,2013-07-04 14:22:00,
2013-07-04 10:27:00,76.0,73.2,30.21,ESE,113,2.3,0.0,91,0.00,CLR,,1.56,WeatherDisplay:10.37,2013-07-04 14:27:00,
2013-07-04 10:32:00,76.3,73.5,30.22,ESE,118,5.8,5.8,91,0.00,CLR,,1.56,WeatherDisplay:10.37,2013-07-04 14:32:00,
2013-07-04 10:37:00,76.6,73.4,30.22,ENE,74,1.2,1.2,90,0.00,CLR,,1.56,WeatherDisplay:10.37,2013-07-04 14:37:00,
2013-07-04 10:42:00,76.8,73.6,30.22,NW,311,3.5,3.5,90,0.00,CLR,,1.56,WeatherDisplay:10.37,2013-07-04 14:42:00,
2013-07-04 10:47:00,77.0,73.5,30.22,SSW,205,3.5,3.5,89,0.00,CLR,,1.56,WeatherDisplay:10.37,2013-07-04 14:47:00,
2013-07-04 10:52:00,77.6,74.1,30.21,South,190,3.5,3.5,89,0.00,CLR,,1.56,WeatherDisplay:10.37,2013-07-04 14:52:00,
2013-07-04 10:57:00,77.8,73.6,30.21,WSW,238,5.0,5.0,87,0.00,CLR,,1.56,WeatherDisplay:10.37,2013-07-04 14:57:00,
2013-07-04 11:02:00,77.8,73.6,30.21,South,179,4.6,4.6,87,0.00,CLR,,1.56,WeatherDisplay:10.37,2013-07-04 15:02:00,
2013-07-04 11:07:00,78.2,74.7,30.21,SE,144,3.5,3.5,89,0.00,CLR,,1.56,WeatherDisplay:10.37,2013-07-04 15:07:00,
2013-07-04 11:12:00,78.7,74.5,30.21,WSW,246,1.2,1.2,87,0.00,CLR,,1.56,WeatherDisplay:10.37,2013-07-04 15:12:00,
2013-07-04 11:17:00,79.2,74.3,30.21,South,190,4.6,4.6,85,0.00,CLR,,1.56,WeatherDisplay:10.37,2013-07-04 15:17:00,
2013-07-04 11:22:00,79.6,74.3,30.21,SE,137,5.8,5.8,84,0.00,CLR,,1.56,WeatherDisplay:10.37,2013-07-04 15:22:00,
2013-07-04 11:27:00,79.7,74.1,30.21,SSW,198,4.6,4.6,83,0.00,CLR,,1.56,WeatherDisplay:10.37,2013-07-04 15:27:00,
2013-07-04 11:32:00,80.1,75.2,30.21,SE,144,11.5,11.5,85,0.00,CLR,,1.56,WeatherDisplay:10.37,2013-07-04 15:32:00,
2013-07-04 11:37:00,80.1,74.1,30.21,South,185,3.5,3.5,82,0.00,CLR,,1.56,WeatherDisplay:10.37,2013-07-04 15:37:00,
2013-07-04 11:42:00,80.5,74.9,30.21,SSW,206,7.0,7.0,83,0.00,CLR,,1.56,WeatherDisplay:10.37,2013-07-04 15:42:00,
2013-07-04 11:47:00,80.9,75.2,30.21,SSW,194,9.2,9.2,83,0.00,CLR,,1.56,WeatherDisplay:10.37,2013-07-04 15:47:00,
2013-07-04 11:52:00,81.0,74.6,30.21,SW,219,10.4,10.4,81,0.00,CLR,,1.56,WeatherDisplay:10.37,2013-07-04 15:52:00,
2013-07-04 11:57:00,81.1,75.1,30.21,East,83,3.5,3.5,82,0.00,CLR,,1.56,WeatherDisplay:10.37,2013-07-04 15:57:00,
2013-07-04 12:02:00,81.2,74.8,30.21,SW,215,4.6,4.6,81,0.00,CLR,,1.56,WeatherDisplay:10.37,2013-07-04 16:02:00,
2013-07-04 12:07:00,81.3,74.5,30.20,SSE,168,1.2,1.2,80,0.00,CLR,,1.56,WeatherDisplay:10.37,2013-07-04 16:07:00,
2013-07-04 12:12:00,81.1,74.7,30.20,SE,146,3.5,3.5,81,0.00,CLR,,1.56,WeatherDisplay:10.37,2013-07-04 16:12:00,
2013-07-04 12:17:00,81.1,75.4,30.20,South,183,4.6,4.6,83,0.00,CLR,,1.56,WeatherDisplay:10.37,2013-07-04 16:17:00,
2013-07-04 12:22:00,81.6,75.2,30.20,South,184,5.8,5.8,81,0.00,CLR,,1.56,WeatherDisplay:10.37,2013-07-04 16:22:00,
2013-07-04 12:27:00,81.8,75.4,30.20,WNW,294,4.6,4.6,81,0.00,CLR,,1.56,WeatherDisplay:10.37,2013-07-04 16:27:00,
2013-07-04 12:32:00,82.0,74.5,30.20,SSE,162,4.6,4.6,78,0.00,CLR,,1.56,WeatherDisplay:10.37,2013-07-04 16:32:00,
2013-07-04 12:37:00,81.7,73.8,30.20,SSW,192,3.5,3.5,77,0.00,CLR,,1.56,WeatherDisplay:10.37,2013-07-04 16:37:00,
2013-07-04 12:42:00,81.4,73.9,30.20,East,86,3.5,3.5,78,0.00,CLR,,1.56,WeatherDisplay:10.37,2013-07-04 16:42:00,
2013-07-04 12:47:00,81.2,73.7,30.19,South,171,3.5,3.5,78,0.00,CLR,,1.56,WeatherDisplay:10.37,2013-07-04 16:47:00,
2013-07-04 12:52:00,81.4,75.0,30.20,South,191,10.4,10.4,81,0.00,CLR,,1.56,WeatherDisplay:10.37,2013-07-04 16:52:00,
2013-07-04 12:57:00,81.9,74.4,30.19,South,190,5.8,5.8,78,0.00,CLR,,1.56,WeatherDisplay:10.37,2013-07-04 16:57:00,
2013-07-04 13:02:00,82.0,74.5,30.19,SE,145,5.8,5.8,78,0.00,CLR,,1.56,WeatherDisplay:10.37,2013-07-04 17:02:00,
2013-07-04 13:07:00,81.8,75.0,30.19,ESE,119,0.0,0.0,80,0.00,CLR,,1.56,WeatherDisplay:10.37,2013-07-04 17:07:00,
2013-07-04 13:12:00,82.1,74.6,30.19,ENE,75,9.2,9.2,78,0.00,CLR,,1.56,WeatherDisplay:10.37,2013-07-04 17:12:00,
2013-07-04 13:17:00,82.4,74.8,30.18,SSE,159,0.0,0.0,78,0.00,CLR,,1.56,WeatherDisplay:10.37,2013-07-04 17:17:00,
2013-07-04 13:22:00,82.7,75.1,30.18,ESE,112,9.2,9.2,78,0.00,CLR,,1.56,WeatherDisplay:10.37,2013-07-04 17:22:00,
2013-07-04 13:27:00,82.9,74.9,30.18,SSE,152,6.9,6.9,77,0.00,CLR,,1.56,WeatherDisplay:10.37,2013-07-04 17:27:00,
2013-07-04 13:32:00,83.1,74.4,30.18,ESE,114,6.9,6.9,75,0.00,CLR,,1.56,WeatherDisplay:10.37,2013-07-04 17:32:00,
2013-07-04 13:37:00,83.1,74.7,30.18,South,191,4.0,4.0,76,0.00,CLR,,1.56,WeatherDisplay:10.37,2013-07-04 17:37:00,
2013-07-04 13:42:00,83.4,75.8,30.18,ESE,119,4.6,4.6,78,0.00,CLR,,1.56,WeatherDisplay:10.37,2013-07-04 17:42:00,
2013-07-04 13:47:00,83.5,75.1,30.18,South,171,4.0,4.0,76,0.00,CLR,,1.56,WeatherDisplay:10.37,2013-07-04 17:47:00,
2013-07-04 13:52:00,83.3,74.9,30.18,SE,136,0.0,0.0,76,0.00,CLR,,1.56,WeatherDisplay:10.37,2013-07-04 17:52:00,
2013-07-04 13:57:00,83.1,73.9,30.17,NE,51,6.9,6.9,74,0.00,CLR,,1.56,WeatherDisplay:10.37,2013-07-04 17:57:00,
2013-07-04 14:02:00,83.3,75.3,30.17,South,180,3.5,3.5,77,0.00,CLR,,1.56,WeatherDisplay:10.37,2013-07-04 18:02:00,
2013-07-04 14:07:00,83.3,74.1,30.17,ESE,111,3.5,3.5,74,0.00,CLR,,1.56,WeatherDisplay:10.37,2013-07-04 18:07:00,
2013-07-04 14:12:00,83.2,74.4,30.16,South,190,6.9,6.9,75,0.00,CLR,,1.56,WeatherDisplay:10.37,2013-07-04 18:12:00,
2013-07-04 14:17:00,83.2,74.4,30.16,SSE,167,4.6,4.6,75,0.00,CLR,,1.56,WeatherDisplay:10.37,2013-07-04 18:17:00,
2013-07-04 14:22:00,83.4,74.6,30.16,SSW,212,1.2,1.2,75,0.00,CLR,,1.56,WeatherDisplay:10.37,2013-07-04 18:22:00,
2013-07-04 14:27:00,83.7,74.5,30.16,NE,47,1.2,1.2,74,0.00,CLR,,1.56,WeatherDisplay:10.37,2013-07-04 18:27:00,
2013-07-04 14:32:00,84.2,75.0,30.16,SSE,165,8.1,8.1,74,0.00,CLR,,1.56,WeatherDisplay:10.37,2013-07-04 18:32:00,
2013-07-04 14:37:00,84.4,75.2,30.16,SSE,147,1.2,1.2,74,0.00,CLR,,1.56,WeatherDisplay:10.37,2013-07-04 18:37:00,
2013-07-04 14:42:00,84.4,74.4,30.15,SSW,194,10.4,10.4,72,0.00,CLR,,1.56,WeatherDisplay:10.37,2013-07-04 18:42:00,
2013-07-04 14:47:00,84.2,74.2,30.15,ESE,114,8.1,8.1,72,0.01,RA,,1.57,WeatherDisplay:10.37,2013-07-04 18:47:00,
2013-07-04 14:52:00,84.3,73.0,30.15,SSE,148,10.4,10.4,69,0.01,RA,,1.57,WeatherDisplay:10.37,2013-07-04 18:52:00,
2013-07-04 14:57:00,84.6,74.6,30.14,ESE,119,4.6,4.6,72,0.01,CLR,,1.57,WeatherDisplay:10.37,2013-07-04 18:57:00,
2013-07-04 15:02:00,85.2,76.0,30.14,East,81,9.2,9.2,74,0.01,CLR,,1.57,WeatherDisplay:10.37,2013-07-04 19:02:00,
2013-07-04 15:07:00,84.9,74.0,30.14,East,93,9.2,9.2,70,0.01,CLR,,1.57,WeatherDisplay:10.37,2013-07-04 19:07:00,
2013-07-04 15:12:00,84.3,73.0,30.15,East,79,5.8,5.8,69,0.01,CLR,,1.57,WeatherDisplay:10.37,2013-07-04 19:12:00,
2013-07-04 15:17:00,84.2,73.3,30.14,SSE,156,9.2,9.2,70,0.01,CLR,,1.57,WeatherDisplay:10.37,2013-07-04 19:17:00,
2013-07-04 15:22:00,84.6,73.3,30.14,SSE,153,8.1,8.1,69,0.01,CLR,,1.57,WeatherDisplay:10.37,2013-07-04 19:22:00,
2013-07-04 15:27:00,84.6,73.7,30.15,SE,145,4.6,4.6,70,0.01,CLR,,1.57,WeatherDisplay:10.37,2013-07-04 19:27:00,
2013-07-04 15:32:00,84.5,73.2,30.15,ESE,102,5.0,5.0,69,0.01,CLR,,1.57,WeatherDisplay:10.37,2013-07-04 19:32:00,
2013-07-04 15:37:00,84.5,73.2,30.14,South,170,10.4,10.4,69,0.01,CLR,,1.57,WeatherDisplay:10.37,2013-07-04 19:37:00,
2013-07-04 15:42:00,84.6,72.4,30.14,SSW,193,4.6,4.6,67,0.01,CLR,,1.57,WeatherDisplay:10.37,2013-07-04 19:42:00,
2013-07-04 15:47:00,84.7,73.0,30.14,SE,125,9.2,9.2,68,0.00,CLR,,1.57,WeatherDisplay:10.37,2013-07-04 19:47:00,
2013-07-04 15:52:00,84.6,72.9,30.13,SE,124,11.5,11.5,68,0.00,CLR,,1.57,WeatherDisplay:10.37,2013-07-04 19:52:00,
2013-07-04 15:57:00,84.8,73.5,30.13,East,92,4.6,4.6,69,0.00,CLR,,1.57,WeatherDisplay:10.37,2013-07-04 19:57:00,
2013-07-04 16:02:00,84.9,73.6,30.12,SE,131,0.0,0.0,69,0.00,CLR,,1.57,WeatherDisplay:10.37,2013-07-04 20:02:00,
2013-07-04 16:07:00,85.1,73.3,30.12,SSE,158,5.8,5.8,68,0.00,CLR,,1.57,WeatherDisplay:10.37,2013-07-04 20:07:00,
2013-07-04 16:12:00,85.2,73.4,30.12,SSW,202,10.4,10.4,68,0.00,CLR,,1.57,WeatherDisplay:10.37,2013-07-04 20:12:00,
2013-07-04 16:17:00,85.2,73.4,30.13,South,186,2.3,0.0,68,0.00,CLR,,1.57,WeatherDisplay:10.37,2013-07-04 20:17:00,
2013-07-04 16:22:00,85.2,73.4,30.13,SSW,199,5.8,5.8,68,0.00,CLR,,1.57,WeatherDisplay:10.37,2013-07-04 20:22:00,
2013-07-04 16:27:00,85.2,73.9,30.12,SW,218,3.5,3.5,69,0.00,CLR,,1.57,WeatherDisplay:10.37,2013-07-04 20:27:00,
2013-07-04 16:32:00,85.1,73.3,30.12,SSW,211,2.3,2.3,68,0.00,CLR,,1.57,WeatherDisplay:10.37,2013-07-04 20:32:00,
2013-07-04 16:37:00,85.1,73.8,30.12,SE,129,5.8,5.8,69,0.00,CLR,,1.57,WeatherDisplay:10.37,2013-07-04 20:37:00,
2013-07-04 16:42:00,85.0,73.3,30.12,SW,219,8.1,8.1,68,0.00,CLR,,1.57,WeatherDisplay:10.37,2013-07-04 20:42:00,
2013-07-04 16:47:00,84.9,72.7,30.12,ESE,108,3.5,3.5,67,0.00,CLR,,1.57,WeatherDisplay:10.37,2013-07-04 20:47:00,
2013-07-04 16:52:00,85.0,74.1,30.12,SSE,150,11.5,11.5,70,0.00,CLR,,1.57,WeatherDisplay:10.37,2013-07-04 20:52:00,
2013-07-04 16:57:00,84.9,72.3,30.12,South,181,6.0,6.0,66,0.00,CLR,,1.57,WeatherDisplay:10.37,2013-07-04 20:57:00,
2013-07-04 17:02:00,84.6,72.9,30.12,SSW,209,4.6,4.6,68,0.00,CLR,,1.57,WeatherDisplay:10.37,2013-07-04 21:02:00,
2013-07-04 17:07:00,83.9,71.8,30.13,SSE,163,11.5,11.5,67,0.00,CLR,,1.57,WeatherDisplay:10.37,2013-07-04 21:07:00,
2013-07-04 17:12:00,83.1,73.1,30.14,SSW,209,12.7,12.7,72,0.00,CLR,,1.57,WeatherDisplay:10.37,2013-07-04 21:12:00,
2013-07-04 17:17:00,81.1,72.8,30.15,West,272,6.9,6.9,76,0.10,RA,,1.67,WeatherDisplay:10.37,2013-07-04 21:17:00,
2013-07-04 17:22:00,79.4,71.9,30.16,SW,225,5.8,5.8,78,0.15,RA,,1.72,WeatherDisplay:10.37,2013-07-04 21:22:00,
2013-07-04 17:27:00,77.9,71.2,30.15,SW,232,2.3,2.3,80,0.17,RA,,1.75,WeatherDisplay:10.37,2013-07-04 21:27:00,
2013-07-04 17:32:00,76.8,70.9,30.15,SE,142,2.3,2.3,82,0.19,RA,,1.76,WeatherDisplay:10.37,2013-07-04 21:32:00,
2013-07-04 17:37:00,76.1,70.9,30.15,SE,136,0.0,0.0,84,0.19,RA,,1.76,WeatherDisplay:10.37,2013-07-04 21:37:00,
2013-07-04 17:42:00,75.5,71.0,30.16,SSE,152,3.0,3.0,86,0.19,CLR,,1.76,WeatherDisplay:10.37,2013-07-04 21:42:00,
2013-07-04 17:47:00,74.9,70.8,30.16,East,97,3.5,3.5,87,0.19,CLR,,1.76,WeatherDisplay:10.37,2013-07-04 21:47:00,
2013-07-04 17:52:00,74.5,70.7,30.15,SE,145,4.6,4.6,88,0.19,CLR,,1.76,WeatherDisplay:10.37,2013-07-04 21:52:00,
2013-07-04 17:57:00,74.3,70.5,30.14,South,172,5.8,5.8,88,0.19,CLR,,1.76,WeatherDisplay:10.37,2013-07-04 21:57:00,
2013-07-04 18:02:00,74.2,70.7,30.15,SE,140,4.0,4.0,89,0.19,CLR,,1.76,WeatherDisplay:10.37,2013-07-04 22:02:00,
2013-07-04 18:07:00,74.3,71.2,30.15,ESE,123,2.3,2.3,90,0.19,CLR,,1.76,WeatherDisplay:10.37,2013-07-04 22:07:00,
2013-07-04 18:12:00,74.4,71.6,30.15,SE,139,0.0,0.0,91,0.19,CLR,,1.76,WeatherDisplay:10.37,2013-07-04 22:12:00,
2013-07-04 18:17:00,74.7,71.9,30.15,ESE,105,3.5,3.5,91,0.09,CLR,,1.76,WeatherDisplay:10.37,2013-07-04 22:17:00,
2013-07-04 18:22:00,74.9,72.1,30.16,SE,146,0.0,0.0,91,0.04,CLR,,1.76,WeatherDisplay:10.37,2013-07-04 22:22:00,
2013-07-04 18:27:00,75.2,72.4,30.16,SE,146,0.0,0.0,91,0.02,CLR,,1.76,WeatherDisplay:10.37,2013-07-04 22:27:00,
2013-07-04 18:32:00,75.4,72.3,30.16,SE,146,0.0,0.0,90,0.00,CLR,,1.76,WeatherDisplay:10.37,2013-07-04 22:32:00,
2013-07-04 18:37:00,75.5,71.4,30.16,SE,146,2.3,2.3,87,0.00,CLR,,1.76,WeatherDisplay:10.37,2013-07-04 22:37:00,
2013-07-04 18:42:00,75.7,71.6,30.16,SE,146,0.0,0.0,87,0.00,CLR,,1.76,WeatherDisplay:10.37,2013-07-04 22:42:00,
2013-07-04 18:47:00,75.7,71.6,30.16,SE,146,0.0,0.0,87,0.00,CLR,,1.76,WeatherDisplay:10.37,2013-07-04 22:47:00,
2013-07-04 18:52:00,75.7,71.2,30.16,SE,145,0.0,0.0,86,0.00,CLR,,1.76,WeatherDisplay:10.37,2013-07-04 22:52:00,
2013-07-04 18:57:00,75.7,71.6,30.16,SE,146,0.0,0.0,87,0.00,CLR,,1.76,WeatherDisplay:10.37,2013-07-04 22:57:00,
2013-07-04 19:02:00,75.7,71.6,30.16,SE,146,0.0,0.0,87,0.00,CLR,,1.76,WeatherDisplay:10.37,2013-07-04 23:02:00,
2013-07-04 19:07:00,75.8,72.0,30.16,SE,145,0.0,0.0,88,0.00,CLR,,1.76,WeatherDisplay:10.37,2013-07-04 23:07:00,
2013-07-04 19:12:00,75.8,71.7,30.16,SE,145,0.0,0.0,87,0.00,CLR,,1.76,WeatherDisplay:10.37,2013-07-04 23:12:00,
2013-07-04 19:17:00,75.8,72.0,30.16,SE,146,0.0,0.0,88,0.00,CLR,,1.76,WeatherDisplay:10.37,2013-07-04 23:17:00,
2013-07-04 19:22:00,75.8,72.3,30.16,SE,146,0.0,0.0,89,0.00,CLR,,1.76,WeatherDisplay:10.37,2013-07-04 23:22:00,
2013-07-04 19:27:00,75.6,72.1,30.16,SE,145,0.0,0.0,89,0.00,CLR,,1.76,WeatherDisplay:10.37,2013-07-04 23:27:00,
2013-07-04 19:32:00,75.4,71.9,30.16,SE,145,0.0,0.0,89,0.00,CLR,,1.76,WeatherDisplay:10.37,2013-07-04 23:32:00,
2013-07-04 19:37:00,75.2,71.7,30.16,SE,146,0.0,0.0,89,0.00,CLR,,1.76,WeatherDisplay:10.37,2013-07-04 23:37:00,
2013-07-04 19:42:00,75.2,72.1,30.17,SSE,155,0.0,0.0,90,0.00,CLR,,1.76,WeatherDisplay:10.37,2013-07-04 23:42:00,
2013-07-04 19:47:00,75.1,72.0,30.17,SSE,155,0.0,0.0,90,0.00,CLR,,1.76,WeatherDisplay:10.37,2013-07-04 23:47:00,
2013-07-04 19:52:00,75.0,71.9,30.17,North,355,0.0,0.0,90,0.00,CLR,,1.76,WeatherDisplay:10.37,2013-07-04 23:52:00,
2013-07-04 19:57:00,74.8,72.0,30.17,North,10,0.0,0.0,91,0.00,CLR,,1.76,WeatherDisplay:10.37,2013-07-04 23:57:00,
2013-07-04 20:02:00,74.7,71.9,30.18,ESE,103,0.0,0.0,91,0.00,CLR,,1.76,WeatherDisplay:10.37,2013-07-05 00:02:00,
2013-07-04 20:07:00,74.6,71.8,30.17,SSW,198,0.0,0.0,91,0.00,CLR,,1.76,WeatherDisplay:10.37,2013-07-05 00:07:00,
2013-07-04 20:12:00,74.5,71.7,30.17,SSW,202,0.0,0.0,91,0.00,CLR,,1.76,WeatherDisplay:10.37,2013-07-05 00:12:00,
2013-07-04 20:17:00,74.3,71.8,30.16,WNW,300,0.0,0.0,92,0.00,CLR,,1.76,WeatherDisplay:10.37,2013-07-05 00:17:00,
2013-07-04 20:22:00,74.2,71.7,30.16,WNW,300,0.0,0.0,92,0.00,CLR,,1.76,WeatherDisplay:10.37,2013-07-05 00:22:00,
2013-07-04 20:27:00,74.1,71.6,30.16,NNE,13,0.0,0.0,92,0.00,CLR,,1.76,WeatherDisplay:10.37,2013-07-05 00:27:00,
2013-07-04 20:32:00,74.1,71.6,30.17,NNE,13,0.0,0.0,92,0.00,CLR,,1.76,WeatherDisplay:10.37,2013-07-05 00:32:00,
2013-07-04 20:37:00,74.0,71.8,30.17,NNE,18,0.0,0.0,93,0.00,CLR,,1.76,WeatherDisplay:10.37,2013-07-05 00:37:00,
2013-07-04 20:42:00,74.0,71.8,30.16,NNE,28,4.0,4.0,93,0.00,CLR,,1.76,WeatherDisplay:10.37,2013-07-05 00:42:00,
2013-07-04 20:47:00,73.9,71.7,30.17,NNE,30,0.0,0.0,93,0.00,CLR,,1.76,WeatherDisplay:10.37,2013-07-05 00:47:00,
2013-07-04 20:52:00,73.9,71.7,30.17,NNE,30,0.0,0.0,93,0.00,CLR,,1.76,WeatherDisplay:10.37,2013-07-05 00:52:00,
2013-07-04 20:57:00,73.8,71.6,30.16,NNE,30,0.0,0.0,93,0.00,CLR,,1.76,WeatherDisplay:10.37,2013-07-05 00:57:00,
2013-07-04 21:02:00,73.8,72.0,30.16,NNE,30,0.0,0.0,94,0.00,CLR,,1.76,WeatherDisplay:10.37,2013-07-05 01:02:00,
2013-07-04 21:07:00,73.8,72.0,30.17,WSW,254,6.9,6.9,94,0.00,CLR,,1.76,WeatherDisplay:10.37,2013-07-05 01:07:00,
2013-07-04 21:12:00,73.2,70.4,30.17,West,272,6.9,6.9,91,0.00,CLR,,1.76,WeatherDisplay:10.37,2013-07-05 01:12:00,
2013-07-04 21:17:00,73.0,70.2,30.17,WSW,250,5.8,5.8,91,0.02,RA,,1.78,WeatherDisplay:10.37,2013-07-05 01:17:00,
2013-07-04 21:22:00,72.8,70.0,30.18,SW,222,9.2,9.2,91,0.11,RA,,1.88,WeatherDisplay:10.37,2013-07-05 01:22:00,
2013-07-04 21:27:00,72.3,69.5,30.17,ESE,112,7.0,7.0,91,0.30,RA,,2.06,WeatherDisplay:10.37,2013-07-05 01:27:00,
2013-07-04 21:32:00,71.7,68.9,30.17,NE,45,6.9,6.9,91,0.34,RA,,2.10,WeatherDisplay:10.37,2013-07-05 01:32:00,
2013-07-04 21:37:00,71.3,68.9,30.17,SSE,162,0.0,0.0,92,0.35,RA,,2.11,WeatherDisplay:10.37,2013-07-05 01:37:00,
2013-07-04 21:42:00,71.1,68.7,30.18,SE,133,1.2,0.0,92,0.35,RA,,2.11,WeatherDisplay:10.37,2013-07-05 01:42:00,
2013-07-04 21:47:00,70.9,68.5,30.18,SE,133,0.0,0.0,92,0.35,CLR,,2.11,WeatherDisplay:10.37,2013-07-05 01:47:00,
2013-07-04 21:52:00,70.8,68.4,30.19,SE,133,0.0,0.0,92,0.35,CLR,,2.11,WeatherDisplay:10.37,2013-07-05 01:52:00,
2013-07-04 21:57:00,70.7,68.6,30.19,SE,133,0.0,0.0,93,0.35,CLR,,2.11,WeatherDisplay:10.37,2013-07-05 01:57:00,
2013-07-04 22:02:00,70.6,68.5,30.19,SE,133,0.0,0.0,93,0.35,CLR,,2.11,WeatherDisplay:10.37,2013-07-05 02:02:00,
2013-07-04 22:07:00,70.6,68.5,30.19,SE,133,0.0,0.0,93,0.35,CLR,,2.11,WeatherDisplay:10.37,2013-07-05 02:07:00,
2013-07-04 22:12:00,70.6,68.8,30.20,SE,133,0.0,0.0,94,0.35,CLR,,2.11,WeatherDisplay:10.37,2013-07-05 02:12:00,
2013-07-04 22:17:00,70.6,68.8,30.20,SE,133,0.0,0.0,94,0.33,CLR,,2.11,WeatherDisplay:10.37,2013-07-05 02:17:00,
2013-07-04 22:22:00,70.7,68.9,30.19,SE,133,0.0,0.0,94,0.24,CLR,,2.11,WeatherDisplay:10.37,2013-07-05 02:22:00,
2013-07-04 22:27:00,70.8,69.3,30.19,SE,133,0.0,0.0,95,0.05,CLR,,2.11,WeatherDisplay:10.37,2013-07-05 02:27:00,
2013-07-04 22:32:00,71.0,69.5,30.20,SE,133,2.3,2.3,95,0.01,CLR,,2.11,WeatherDisplay:10.37,2013-07-05 02:32:00,
2013-07-04 22:37:00,71.2,69.7,30.20,SSE,161,4.6,4.6,95,0.00,CLR,,2.11,WeatherDisplay:10.37,2013-07-05 02:37:00,
2013-07-04 22:42:00,71.3,69.8,30.20,SSW,195,3.5,3.5,95,0.00,CLR,,2.11,WeatherDisplay:10.37,2013-07-05 02:42:00,
2013-07-04 22:47:00,71.3,69.8,30.20,South,171,0.0,0.0,95,0.00,CLR,,2.11,WeatherDisplay:10.37,2013-07-05 02:47:00,
2013-07-04 22:52:00,71.3,69.8,30.20,South,169,0.0,0.1,95,0.00,CLR,,2.11,WeatherDisplay:10.37,2013-07-05 02:52:00,
2013-07-04 22:57:00,71.3,69.8,30.20,South,169,1.0,0.0,95,0.00,CLR,,2.11,WeatherDisplay:10.37,2013-07-05 02:57:00,
2013-07-04 23:02:00,71.2,69.7,30.20,SSE,167,3.5,0.0,95,0.00,CLR,,2.11,WeatherDisplay:10.37,2013-07-05 03:02:00,
2013-07-04 23:07:00,71.2,69.7,30.20,SSE,167,0.0,0.0,95,0.00,CLR,,2.11,WeatherDisplay:10.37,2013-07-05 03:07:00,
2013-07-04 23:12:00,71.1,69.6,30.20,South,175,0.0,0.0,95,0.00,CLR,,2.11,WeatherDisplay:10.37,2013-07-05 03:12:00,
2013-07-04 23:17:00,71.0,69.5,30.19,ESE,111,1.2,1.2,95,0.00,CLR,,2.11,WeatherDisplay:10.37,2013-07-05 03:17:00,
2013-07-04 23:22:00,70.9,69.4,30.19,ESE,112,0.0,0.0,95,0.00,CLR,,2.11,WeatherDisplay:10.37,2013-07-05 03:22:00,
2013-07-04 23:27:00,70.9,69.4,30.20,ESE,111,0.0,0.0,95,0.00,CLR,,2.11,WeatherDisplay:10.37,2013-07-05 03:27:00,
2013-07-04 23:32:00,70.9,69.4,30.20,ESE,111,0.0,0.0,95,0.00,CLR,,2.11,WeatherDisplay:10.37,2013-07-05 03:32:00,
2013-07-04 23:37:00,71.0,69.5,30.20,ESE,105,3.5,3.5,95,0.00,CLR,,2.11,WeatherDisplay:10.37,2013-07-05 03:37:00,
2013-07-04 23:42:00,71.0,69.5,30.20,SW,216,3.5,3.5,95,0.00,CLR,,2.11,WeatherDisplay:10.37,2013-07-05 03:42:00,
2013-07-04 23:47:00,71.1,69.6,30.19,SSE,155,0.0,0.0,95,0.00,CLR,,2.11,WeatherDisplay:10.37,2013-07-05 03:47:00,
2013-07-04 23:52:00,71.2,69.7,30.20,SSE,157,3.0,0.0,95,0.00,CLR,,2.11,WeatherDisplay:10.37,2013-07-05 03:52:00,
2013-07-04 23:57:00,71.3,69.8,30.19,SE,143,3.5,3.5,95,0.00,CLR,,2.11,WeatherDisplay:10.37,2013-07-05 03:57:00,